Location: Villingen
(48.0639°N, 8.4609°E)
Time: 16:48:13
(UTC+01:00)

ISS - Pass Details

Date: 11 November 2017
Orbit: 402 x 407 km, 51.6° (Epoch: 19 November)

Event Time Altitude Azimuth Distance (km) Brightness Sun altitude
Exits shadow 06:42:44 10° 292° (WNW) 1,442 -1.7 -7.7°
Maximum altitude 06:45:57 84° 206° (SSW) 409 -3.8 -7.1°
Drops below altitude 10° 06:49:13 10° 117° (ESE) 1,452 0.7 -6.6°
Sets 06:51:17 0° 116° (ESE) 2,309 2.5 -6.3°
